TimeMST,TemperatureF,Dew PointF,Humidity,Sea Level PressureIn,VisibilityMPH,Wind Direction,Wind SpeedMPH,Gust SpeedMPH,PrecipitationIn,Events,Conditions,WindDirDegrees,DateUTC
12:54 AM,21.9,12.0,66,29.82,10.0,North,6.9,-,N/A,,Scattered Clouds,10,2012-11-11 07:54:00
1:54 AM,21.9,12.9,68,29.84,10.0,NW,9.2,-,N/A,,Mostly Cloudy,320,2012-11-11 08:54:00
2:54 AM,21.9,12.9,68,29.86,10.0,NW,6.9,-,N/A,,Mostly Cloudy,320,2012-11-11 09:54:00
3:54 AM,23.0,12.9,65,29.88,10.0,NNW,3.5,-,N/A,,Overcast,340,2012-11-11 10:54:00
4:54 AM,23.0,14.0,68,29.85,7.0,SSW,3.5,-,N/A,Snow,Light Snow,210,2012-11-11 11:54:00
5:54 AM,21.9,18.0,85,29.96,3.0,SSW,8.1,-,0.00,Snow,Light Snow,200,2012-11-11 12:54:00
6:12 AM,21.2,17.6,86,29.87,2.5,South,8.1,-,N/A,Snow,Light Snow,190,2012-11-11 13:12:00
6:24 AM,21.2,17.6,86,29.87,2.0,South,8.1,-,0.00,Snow,Light Snow,190,2012-11-11 13:24:00
6:36 AM,21.2,17.6,86,29.88,1.5,South,10.4,-,0.00,Snow,Light Snow,170,2012-11-11 13:36:00
6:51 AM,21.2,17.6,86,29.88,0.8,SSE,11.5,-,0.01,Snow,Light Snow,160,2012-11-11 13:51:00
6:54 AM,21.0,18.0,88,29.99,0.8,SSE,11.5,-,0.01,Snow,Light Snow,160,2012-11-11 13:54:00
7:20 AM,21.2,17.6,86,29.90,1.8,SSE,10.4,-,0.00,Snow,Light Snow,160,2012-11-11 14:20:00
7:54 AM,21.0,18.0,88,30.04,1.8,South,10.4,-,0.01,Snow,Light Snow,170,2012-11-11 14:54:00
8:03 AM,21.2,17.6,86,29.92,3.0,South,8.1,-,0.00,Snow,Light Snow,170,2012-11-11 15:03:00
8:54 AM,21.9,18.0,85,30.07,10.0,South,9.2,-,0.00,,Overcast,170,2012-11-11 15:54:00
9:54 AM,23.0,19.9,88,30.08,9.0,South,6.9,-,N/A,,Overcast,170,2012-11-11 16:54:00
10:54 AM,26.6,21.2,80,29.95,10.0,South,9.2,-,N/A,,Overcast,170,2012-11-11 17:54:00
11:07 AM,26.6,21.2,80,29.95,9.0,SSE,6.9,-,N/A,,Mostly Cloudy,150,2012-11-11 18:07:00
11:20 AM,26.6,21.2,80,29.95,9.0,SSE,6.9,-,N/A,,Mostly Cloudy,150,2012-11-11 18:20:00
11:54 AM,26.1,19.9,78,30.08,9.0,SSE,9.2,-,N/A,,Overcast,150,2012-11-11 18:54:00
12:07 PM,26.6,19.4,74,29.94,10.0,SSE,8.1,-,N/A,,Mostly Cloudy,160,2012-11-11 19:07:00
12:54 PM,27.0,19.9,75,30.08,10.0,SE,4.6,-,N/A,,Mostly Cloudy,140,2012-11-11 19:54:00
1:19 PM,28.4,19.4,69,29.94,10.0,SE,9.2,-,N/A,,Overcast,140,2012-11-11 20:19:00
1:30 PM,28.4,19.4,69,29.94,10.0,SE,8.1,-,N/A,,Mostly Cloudy,140,2012-11-11 20:30:00
1:54 PM,28.9,18.0,64,30.09,10.0,SE,9.2,-,N/A,,Mostly Cloudy,140,2012-11-11 20:54:00
2:54 PM,28.9,19.0,67,30.13,9.0,ESE,10.4,-,0.00,Snow,Light Snow,120,2012-11-11 21:54:00
3:54 PM,28.0,18.0,66,30.15,10.0,SE,9.2,-,0.00,,Mostly Cloudy,140,2012-11-11 22:54:00
4:54 PM,26.1,16.0,66,30.18,10.0,South,9.2,-,N/A,,Scattered Clouds,180,2012-11-11 23:54:00
5:54 PM,28.9,-2.9,25,30.21,10.0,WNW,16.1,28.8,N/A,,Partly Cloudy,300,2012-11-12 00:54:00
6:54 PM,28.0,-5.1,24,30.25,10.0,NW,15.0,23.0,N/A,,Clear,320,2012-11-12 01:54:00
7:54 PM,26.1,-5.1,26,30.28,10.0,NW,10.4,-,N/A,,Clear,320,2012-11-12 02:54:00
8:54 PM,27.0,-5.1,25,30.29,10.0,NW,21.9,28.8,N/A,,Clear,310,2012-11-12 03:54:00
9:54 PM,27.0,-5.1,25,30.29,10.0,WNW,18.4,34.5,N/A,,Clear,290,2012-11-12 04:54:00
11:54 PM,25.0,-4.0,28,30.30,10.0,WNW,6.9,-,N/A,,Clear,300,2012-11-12 06:54:00